Home   Weather   Nikšić   Past weeks

Flag for Montenegro Past Weather in Nikšić, Montenegro — Yesterday and Last 2 Weeks

Now
19 °F

Sunny.


Feels Like: 19 °F
Forecast: 19 / 43 °F
Wind: No wind

Location: Niksic

Current Time: Jan 21, 2017 at 9:38:12 am

Latest Report: Jan 21, 2017 at 8:00 am


Visibility: 13 mi

Pressure: 30.55 "Hg (28.16 "Hg at 635m altitude)

Humidity: 81%

Dew Point: 14 °F

Location of NikšićLocation

Past Weather in Nikšić — Graph

°F

Nikšić Temperature Yesterday

Maximum temperature yesterday: 41 °F (at 3:00 pm)
Minimum temperature yesterday: 26 °F (at 1:00 am)
Average temperature yesterday: 31 °F

High & Low Weather Summary for the Past Weeks

 TemperatureHumidityPressure
High41 °F (Jan 15, 2:00 pm)99% (Jan 13, 10:00 am)30.55 "Hg (Jan 13, 10:00 am)
Low6 °F (Jan 8, 1:00 am)25% (Jan 8, 10:00 am)29.57 "Hg (Jan 13, 10:00 pm)
Average24 °F59%30.11 "Hg
* Reported Jan 6 8:00 am — Jan 21 8:00 am, Nikšić, Weather by CustomWeather, © 2017

Note: Actual official high and low records may vary slightly from our data, if they occured in-between our weather recording intervals... More about our weather records

Advertising

Nikšić Weather History for the Previous 24 Hours

Scroll right to see more
 ConditionsComfort  
Time TempWeatherWind HumidityBarometerVisibility
8:00 am
Sat, Jan 21
19 °FSunny.No wind81%30.55 "Hg12 mi
7:00 am20 °FClear.1 mph86%30.55 "Hg12 mi
6:00 am22 °FClear.1 mph78%30.54 "Hg12 mi
5:00 am22 °FClear.2 mph75%30.53 "Hg12 mi
4:00 am23 °FClear.1 mph80%30.53 "Hg12 mi
1:00 am24 °FClear.2 mph78%30.55 "Hg12 mi
10:00 pm
Fri, Jan 20
27 °FClear.2 mph70%30.53 "Hg12 mi
9:00 pm29 °FClear.2 mph65%30.51 "Hg12 mi
8:00 pm30 °FClear.3 mph61%30.50 "Hg12 mi
7:00 pm31 °FClear.1 mph59%30.48 "Hg12 mi
6:00 pm33 °FClear.No wind53%30.46 "Hg12 mi
5:00 pm35 °FClear.2 mph53%30.45 "Hg12 mi
4:00 pm40 °FSunny.2 mph48%30.42 "Hg12 mi
3:00 pm41 °FSunny.2 mph46%30.42 "Hg12 mi
2:00 pm41 °FSunny.2 mph47%30.42 "Hg12 mi
1:00 pm39 °FSunny.3 mph48%30.43 "Hg12 mi
10:00 am33 °FSunny.3 mph55%30.48 "Hg12 mi
9:00 am29 °FSunny.3 mph60%30.46 "Hg12 mi
Weather by CustomWeather, © 2017

See weather overviewHow to use our weather pages